Simultaneous Nadir Overpasses (SNOs) Predictions

Prediction of SNOs between NOAA-19 and METOP-C Satellite Orbit:

Table of predicted SNOs for the next 14.0 days since TLE Epoch: 10/30/2021
Index Date (NOAA-19) Time (NOAA-19) Lat,Lon (NOAA-19) SZA (NOAA-19 ) Date (METOP-C) Time (METOP-C) Lat,Lon (METOP-C) SZA (METOP-C ) Distance(km) Time Diff (sec)
1 11/08/2021 19:49:04 -80.78, 89.91 81.18 11/08/2021 19:50:06 -80.78, 95.24 80.69 94.92 62
2 11/08/2021 20:39:54 80.67, -99.22 99.06 11/08/2021 20:40:51 80.67, -99.29 99.07 1.49 57
3 11/08/2021 21:30:54 -80.67, 68.08 80.94 11/08/2021 21:31:33 -80.67, 68.04 80.93 1.03 39
4 11/08/2021 22:21:54 80.67,-124.65 99.08 11/08/2021 22:22:13 80.66,-124.76 99.07 2.49 19
5 11/08/2021 23:12:54 -80.67, 42.66 80.91 11/08/2021 23:12:55 -80.66, 42.57 80.93 2.10 1
6 11/09/2021 00:03:53 80.66,-149.73 99.13 11/09/2021 00:03:34 80.67,-149.89 99.12 3.30 19
7 11/09/2021 00:54:54 -80.67, 17.23 80.89 11/09/2021 00:54:17 -80.65, 17.09 80.93 3.17 37
8 11/09/2021 01:45:54 80.67,-175.52 99.13 11/09/2021 01:44:56 80.66,-175.36 99.12 2.87 58



Historial Predications of SNOs between NOAA-19 and METOP-C
